ONEWEB-0146, 47292

Orbit data source: Space-Track

ONEWEB-0146, 47292 is a payload satellite owned by One Web (UK) in LEO that was launched on Fri, 18 Dec 2020 UTC via a SOYUZ-2-1B launch vehicle from the Vostochny Cosmodrome (VOSTO). Payload-class satellites include a variety of spacecraft equipped with specific instruments for various scientific and technological missions. These include communications satellites like Starlink; space stations such as the ISS; scientific satellites like the Hubble; Earth observation satellites from companies like Planet Labs, Umbra, and HawkEye 360; GPS; miniature CubeSats for education and research; and military/defense satellites.

Loading next visibility...
Identifier
47292, 2020-100AL
Orbit
LEO
Country
Flag of UKUK
Related business
Manufacturer
One Web
Mission
Operational Commercial Communications
Bus & Motor
ARROW, Unknown motor
Mass
148 kg wet, ~140 kg dry
Launch date (UTC)
2020-12-18 (5 years ago)
Launch vehicle
SOYUZ-2-1B
Launch site
Vostochny Cosmodrome (VOSTO)
Object type
Payload
Rocket body
Debris
Shape & HBR
Trap Box + 2 Pan, 6.7 m
Radar Cross Section
3.464 m², Large (>1 m²)

Expand to show TLE details & history
Last TLE update: 8 hours ago

TLE from 8 hours ago
0 ONEWEB-0146
1 47292U 20100AL  26095.22242272 -.00000111  00000-0 -34381-3 0  9999
2 47292  87.9016   5.1496 0001815  89.1080 271.0257 13.12443001255109
Epoch: 2026-04-05T05:20Z
TLE epoch observation values (Epoch: 2026-04-05T05:20:17.323Z)
Latitude
0.00006°
Longitude
91.54648°
Altitude
1,216.59 km
Speed
7.246 km/s
True Right ascension
00h 20m 35s
True Declination
0° 00' 00"
Sunlit
Object was in daylight at epoch
Visualization orbit readout
Latitude
Unknown
Longitude
Unknown
Altitude
Unknown
Speed
Unknown
Apparent Right ascension
Unknown
Apparent Declination
Unknown
Sunlit
N/A
Visualization observer readout
Local Sidereal Time
18:59:53
Azimuth
Unknown
Elevation
Unknown
Doppler factor
Unknown
Orbital elements
Apogee altitude
1,212.217 km
Perigee altitude
1,209.462 km
Semi-major axis
7,588.977 km
Eccentricity
0.00018
Inclination
87.9016°
RAAN
5.1496°
Arg. of periapsis
89.108°
True anomaly
271.0049°
Mean anomaly
271.0257°
Eccentric anomaly
271.0153°
Mean motion
3.28298 °/min
Orbital period
109.66 mins
BSTAR
-0.00034381
Loading maneuver chart data...
Computing Atmospheric mass density...
Loading historical data...
Loading historical data...
Loading historical data...
Loading historical data...
Loading historical data...
Loading historical data...
Loading historical data...

Documentation

Showing up to 5 results
|